Showing default

ASTROCAST-0205, 48960

Orbit data source: Space-Track

ASTROCAST-0205, 48960 is a payload satellite owned by Astrocast (CH) in SSO that was launched on Wed, 30 Jun 2021 UTC via an FALCON 9 launch vehicle from the Air Force Eastern Test Range (AFETR). Payload-class satellites include a variety of spacecraft equipped with specific instruments for various scientific and technological missions. These include communications satellites like Starlink; space stations such as the ISS; scientific satellites like the Hubble; Earth observation satellites from companies like Planet Labs, Umbra, and HawkEye 360; GPS; miniature CubeSats for education and research; and military/defense satellites.

Not visible in the next 10 days
Identifier
48960, 2021-059CK
Orbit
SSO
Country
Flag of UnknownUnknown / SWTZ
Related business
Manufacturer
Astrocast
Mission
Operational Commercial Communications
Bus & Motor
CUBESAT 3U, Unknown motor
Mass
5 kg wet, 5 kg dry
Launch date (UTC)
2021-06-30 (4 years ago)
Launch vehicle
FALCON 9
Launch site
Air Force Eastern Test Range (AFETR)
Object type
Payload
Rocket body
Debris
Shape & HBR
Box, 0.1 m
Radar Cross Section
0.035 m², Medium (>0.1 m² and < 1m²)

Expand to show TLE details & history
Last TLE update: 17 hours ago

TLE from 17 hours ago
0 ASTROCAST-0205
1 48960U 21059CK  25340.46061745  .00300444  35157-4  10309-2 0  9996
2 48960  97.6364 164.4483 0005814 219.6472 140.4376 15.89621426248253
Epoch: 2025-12-06T11:03Z
TLE epoch observation values (Epoch: 2025-12-06T11:03:17.347Z)
Latitude
0.00001°
Longitude
-76.86201°
Altitude
309.517 km
Speed
7.721 km/s
True Right ascension
10h 57m 47s
True Declination
0° 00' 00"
Sunlit
Object was in daylight at epoch
Visualization orbit readout
Latitude
Unknown
Longitude
Unknown
Altitude
Unknown
Speed
Unknown
Apparent Right ascension
Unknown
Apparent Declination
Unknown
Sunlit
N/A
Visualization observer readout
Local Sidereal Time
02:30:52
Azimuth
Unknown
Elevation
Unknown
Doppler factor
Unknown
Orbital elements
Apogee altitude
304.11 km
Perigee altitude
296.345 km
Semi-major axis
6,678.364 km
Eccentricity
0.00058
Inclination
97.6364°
RAAN
164.4483°
Arg. of periapsis
219.6472°
True anomaly
140.48001°
Mean anomaly
140.4376°
Eccentric anomaly
140.45881°
Mean motion
3.97684 °/min
Orbital period
90.52 mins
BSTAR
0.0010309
Loading maneuver chart data...
Computing Atmospheric mass density...

Documentation

Showing up to 5 results
|